Location: Madrid
(40.4000°N, 3.6830°W)
Time: 01:34:07
(UTC+02:00)

ISS - Pass Details

Date: 16 July 2019
Orbit: 409 x 418 km, 51.6° (Epoch: 23 July)

Event Time Altitude Azimuth Distance (km) Brightness Sun altitude
Rises 23:00:25 0° 215° (SW) 2,341 0.0 -12.7°
Reaches altitude 10° 23:02:34 10° 207° (SSW) 1,481 -1.1 -13.0°
Maximum altitude 23:05:41 39° 137° (SE) 639 -3.4 -13.4°
Drops below altitude 10° 23:08:49 10° 67° (ENE) 1,485 -1.2 -13.8°
Sets 23:10:59 0° 59° (ENE) 2,348 -0.1 -14.1°
